Regional Weather Roundup
Issued by NWS

Home | Current Version | Previous Version | Text Only | Print | Product List | Glossary Off
Versions: 1 2 3 4 5 6 7 8 9 10 11 12 13 14 15 16 17 18 19 20 21 22 23 24 25 26 27 28 29 30 31 32 33 34 35 36 37 38 39 40 41 42 43 44 45 46 47 48 49 50

000
ASUS44 KMEG 290310
RWRTN
TENNESSEE HOURLY STATE WEATHER ROUNDUP
NATIONAL WEATHER SERVICE MEMPHIS TN
1000 PM CDT SUN AUG 28 2016

TNZ002-004-019-021-049-052-054-088>092-290400-
WEST TENNESSEE

CITY           SKY/WX    TMP DP  RH WIND       PRES   REMARKS
MEMPHIS INTL   PTCLDY    86  70  58 E5        30.08R HX  90
NWS MEMPHIS      N/A     78 N/A N/A MISG        N/A
JACKSON        CLEAR     79  74  84 CALM      30.10R
DYERSBURG      CLEAR     79  73  83 MISG      30.10R
UNION CITY     CLEAR     81  75  83 E3        30.10S
PARIS          CLEAR     77  73  88 NE5       30.13R
LEXINGTON      CLEAR     79  75  89 CALM      30.11R
$$

TNZ008-025-027-028-033-062-065-066-290400-
NORTH MIDDLE TENNESSEE

CITY           SKY/WX    TMP DP  RH WIND       PRES   REMARKS
NASHVILLE      PTCLDY    79  71  76 NE9       30.14S
CLARKSVILLE    CLEAR     80  70  71 E9        30.14R
COOKEVILLE     CLEAR     72  70  94 CALM      30.16S
CROSSVILLE     CLOUDY    69  68  96 E6        30.23R
$$

TNZ061-075-076-078-094-096-097-290400-
SOUTH MIDDLE TENNESSEE

CITY           SKY/WX    TMP DP  RH WIND       PRES   REMARKS
FAYETTEVILLE   MOCLDY    75  68  78 NE6       30.13S
TULLAHOMA      CLEAR     75  70  83 CALM      30.15F
WINCHESTER     CLEAR     72  70  94 CALM      30.14F
MCMINNVILLE    CLEAR     73  73 100 NE7       30.17R
COLUMBIA       CLEAR    N/A N/A N/A CALM      30.12R
SHELBYVILLE    PTCLDY    75  75 100 CALM      30.15S
$$

TNZ017-018-042-046-047-290400-
NORTHEAST TENNESSEE

CITY           SKY/WX    TMP DP  RH WIND       PRES   REMARKS
TRI CITIES     CLOUDY    74  70  87 CALM      30.19R
ELIZABETHTON     N/A     75  64  69 NE5       30.20R
$$

TNZ012-013-036-069-073-074-290400-
CENTRAL EAST TENNESSEE

CITY           SKY/WX    TMP DP  RH WIND       PRES   REMARKS
KNOXVILLE      MOCLDY    75  68  78 N6        30.15S
OAK RIDGE      CLOUDY    74  69  85 CALM      30.17S
GATLINBURG     CLEAR     72  70  94 CALM      30.16R
MORRISTOWN     PTCLDY    73  72  94 CALM      30.16F
$$

TNZ083-085-099-290400-
SOUTHEAST TENNESSEE

CITY           SKY/WX    TMP DP  RH WIND       PRES   REMARKS
CHATTANOOGA    MOCLDY    75  73  93 SE3       30.14R
$$

SKY/WX REPORTED AS FAIR MEANS FEW OR NO CLOUDS BELOW
12 THOUSAND FEET.





USA.gov is the U.S. government's official web portal to all federal, state and local government web resources and services.